[[{"header":{"parameterUnit":"m.s-1","parameterCategory":1,"la1":30.2991,"la2":30.254,"lo1":-89.0895,"lo2":-89.0444,"dy":0.0017,"dx":0.0017,"nx":28,"ny":28,"refTime":"2024-10-01T21:00:00:Z","depth":0,"parameterNumber":2,"parameterNumberName":"U-component_of_WINDS"},"data":[0,0,0,0,0,0,0,0,0,0,0,0,0,0,0,0,0,0,0,0,0,0,0,0,0,0,0,0,0,0,0,0,0,0,0,0,0,0,0,0,0,0,0,0,0,0,0,0,0,0,0,0,0,0,0,0,0,0,-1.2314,-1.2314,0,-1.2347,-1.2347,-1.2347,-1.2281,-1.2279,-1.2277,-1.2275,-1.2311,-1.2314,-1.2317,0,0,0,0,0,0,0,0,0,0,0,0,0,-1.2196,-1.2198,-1.2314,-1.2314,-1.2315,-1.2347,-1.2347,-1.2348,-1.2281,-1.2279,-1.2276,-1.2274,-1.231,-1.2313,-1.2317,0,0,0,0,0,0,0,0,0,0,0,0,0,-1.224,-1.2199,-1.2314,-1.2285,-1.2283,-1.2347,-1.2347,-1.2348,-1.2282,-1.2279,-1.2275,-1.2272,-1.2309,-1.2313,-1.2317,-1.2411,0,0,-1.2331,-1.2333,0,0,0,0,0,0,0,0,-1.2237,-1.2244,-1.2289,-1.2288,-1.2285,-1.2306,-1.2318,-1.2369,-1.2283,-1.2283,-1.2274,-1.2271,-1.2312,-1.2316,-1.2329,-1.2412,-1.2414,-1.2332,-1.2334,-1.2336,-1.2337,0,0,0,0,0,0,0,-1.2234,-1.2242,-1.2327,-1.229,-1.2288,-1.2272,-1.2274,-1.2328,-1.2315,-1.2282,-1.2278,-1.2282,-1.231,-1.2325,-1.233,-1.2414,-1.2331,-1.2335,-1.2338,-1.234,-1.2575,-1.2578,0,0,0,0,0,0,-1.2234,-1.224,-1.2326,-1.2328,-1.2253,-1.2276,-1.2279,-1.2303,-1.2315,-1.2313,-1.2285,-1.2279,-1.2319,-1.2325,-1.2331,-1.2441,-1.2336,-1.234,-1.2343,-1.2572,-1.2576,-1.258,0,0,0,0,0,0,-1.2232,-1.2243,-1.2325,-1.2283,-1.2292,-1.2282,-1.2309,-1.2305,-1.232,-1.2316,-1.2314,-1.2303,-1.2317,-1.2325,-1.2391,-1.2442,-1.2342,-1.2346,-1.2567,-1.2573,-1.2578,-1.2663,0,0,0,0,0,0,-1.2229,-1.2242,-1.2278,-1.2284,-1.2294,-1.2384,-1.2312,-1.2308,-1.2328,-1.232,-1.2332,-1.2331,-1.2315,-1.2385,-1.2396,-1.2446,-1.235,-1.2563,-1.257,-1.2576,-1.2656,-1.2671,-1.2683,0,0,0,0,0,-1.2225,-1.2301,-1.228,-1.229,-1.2338,-1.2387,-1.2393,-1.2372,-1.2332,-1.2368,-1.2365,-1.2331,-1.2434,-1.2392,-1.2404,-1.2456,-1.256,-1.2568,-1.2576,-1.2649,-1.2668,-1.2683,0,0,0,0,0,0,-1.2302,-1.2301,-1.2278,-1.2358,-1.2373,-1.2376,-1.242,-1.2392,-1.242,-1.2412,-1.2385,-1.2388,-1.246,-1.2464,-1.2418,-1.2547,-1.249,-1.2501,-1.2542,-1.2559,-1.2573,-1.2572,-1.2354,0,0,0,0,0,-1.2328,-1.2367,-1.2364,-1.2435,-1.2444,-1.2431,-1.2451,-1.2434,-1.2449,-1.2455,-1.2457,-1.2474,-1.251,-1.2534,-1.2567,-1.2655,-1.2657,-1.2697,-1.271,-1.2722,-1.2732,-1.2779,-1.2797,-1.2606,-1.2606,-1.2606,0,0,-1.2382,-1.2387,-1.2414,-1.2451,-1.246,-1.2502,-1.2437,-1.2484,-1.2515,-1.2462,-1.2526,-1.2528,-1.2544,-1.2622,-1.2656,-1.2628,-1.2785,-1.2732,-1.2741,-1.2745,-1.279,-1.2808,-1.2824,-1.2611,-1.261,-1.2609,0,0,-1.2504,-1.251,-1.257,-1.2581,-1.2596,-1.2586,-1.2601,-1.2608,-1.2607,-1.2669,-1.2631,-1.2667,-1.273,-1.2743,-1.2758,-1.2883,-1.2853,-1.2894,-1.2968,-1.3014,-1.3029,-1.3042,-1.3088,-1.3105,-1.2904,-1.2904,-1.2904,0,-1.257,-1.2632,-1.2605,-1.2655,-1.2673,-1.2625,-1.2686,-1.2698,-1.2723,-1.2737,-1.2704,-1.2781,-1.2789,-1.2869,-1.2899,-1.2912,-1.2929,-1.2894,-1.3029,-1.3042,-1.3054,-1.3097,-1.3114,-1.2909,-1.2909,-1.2908,-1.2908,0,-1.2713,-1.2756,-1.2803,-1.2827,-1.285,-1.2905,-1.2888,-1.2914,-1.2893,-1.2887,-1.2952,-1.2959,-1.2992,-1.3009,-1.299,-1.3087,-1.3069,-1.3033,-1.2976,-1.3078,-1.3118,-1.3134,-1.2916,-1.2915,-1.2913,-1.2912,0,0,-1.2887,-1.2894,-1.2912,-1.2923,-1.2935,-1.2968,-1.3021,-1.3052,-1.3076,-1.3094,-1.3139,-1.3192,-1.3158,-1.3175,-1.3157,-1.3197,-1.3297,-1.3156,-1.3156,-1.3183,-1.3405,-1.3434,-1.3454,-1.3275,-1.3278,-1.3281,-1.3404,0,-1.3008,-1.3099,-1.3076,-1.3166,-1.3206,-1.316,-1.3206,-1.3219,-1.3214,-1.3247,-1.3242,-1.328,-1.3232,-1.3242,-1.328,-1.3277,-1.3341,-1.3267,-1.3318,-1.332,-1.3318,-1.3475,-1.3506,-1.3622,-1.342,-1.3422,-1.3424,0,-1.3163,-1.3187,-1.3281,-1.3286,-1.3302,-1.3343,-1.3371,-1.3402,-1.3416,-1.3409,-1.3428,-1.3401,-1.3453,-1.3393,-1.3466,-1.3416,-1.3435,-1.3436,-1.344,-1.3446,-1.338,-1.3487,-1.3658,-1.3677,-1.3449,-1.3447,-1.3445,0,-1.3282,-1.3337,-1.3401,-1.3411,-1.3418,-1.3449,-1.3453,-1.3463,-1.3483,-1.3507,-1.352,-1.3549,-1.3566,-1.359,-1.3572,-1.353,-1.3648,-1.3586,-1.3645,-1.3646,-1.3675,-1.3674,-1.3854,-1.3683,-1.3683,-1.3683,-1.3682,0,-1.3422,-1.3482,-1.3454,-1.3494,-1.356,-1.3532,-1.3598,-1.3597,-1.3606,-1.3644,-1.3606,-1.3643,-1.3616,-1.3651,-1.3637,-1.37,-1.3707,-1.3704,-1.3701,-1.3709,-1.371,-1.3723,-1.3716,-1.3687,-1.3686,-1.3685,-1.3684,0,-1.3568,-1.3552,-1.3618,-1.3619,-1.362,-1.3669,-1.3669,-1.3706,-1.3697,-1.3747,-1.3757,-1.3744,-1.3783,-1.3766,-1.3808,-1.3798,-1.388,-1.3864,-1.3875,-1.3872,-1.3933,-1.3929,-1.413,-1.4156,-1.3967,-1.3968,-1.397,0,-1.366,-1.3705,-1.3709,-1.3732,-1.3739,-1.3776,-1.3796,-1.377,-1.3793,-1.381,-1.3845,-1.3881,-1.3908,-1.3973,-1.3968,-1.3999,-1.3985,-1.4053,-1.399,-1.3997,-1.3988,-1.3987,-1.3992,-1.4067,-1.4069,-1.4071,-1.4073,0,-1.3825,-1.3814,-1.3844,-1.3872,-1.3897,-1.3917,-1.3935,-1.3956,-1.393,-1.3957,-1.3996,-1.4017,-1.4059,-1.4095,-1.4122,-1.4127,-1.4097,-1.4092,-1.4108,-1.4119,-1.4125,-1.4124,-1.3913,-1.4088,-1.4087,-1.4086,-1.4085,-1.4084,-1.3948,-1.3986,-1.3995,-1.403,-1.4039,-1.4056,-1.4091,-1.4085,-1.4117,-1.4149,-1.4131,-1.4177,-1.4188,-1.4221,-1.423,-1.4266,-1.4239,-1.4262,-1.4268,-1.4275,-1.4284,-1.4116,-1.4271,-1.427,-1.427,-1.4269,-1.4269,0,-1.4112,-1.4115,-1.4148,-1.4172,-1.42,-1.4166,-1.4183,-1.4209,-1.4249,-1.4262,-1.4289,-1.4334,-1.4368,-1.4364,-1.4396,-1.4425,-1.4412,-1.4435,-1.4434,-1.4436,-1.4305,-1.4289,-1.4445,-1.4445,-1.4445,-1.4445,-1.4445,-1.4445,-1.4202,-1.4264,-1.4254,-1.4321,-1.4323,-1.4368,-1.438,-1.4396,-1.4405,-1.4457,-1.4485,-1.4482,-1.4488,-1.4519,-1.4549,-1.4547,-1.4562,-1.4591,-1.4584,-1.4462,-1.4445,-1.4428,-1.4413,-1.4593,-1.4593,-1.4712,-1.4713,-1.4714]},{"header":{"parameterUnit":"m.s-1","parameterCategory":1,"la1":30.2991,"la2":30.254,"lo1":-89.0895,"lo2":-89.0444,"dy":0.0017,"dx":0.0017,"nx":28,"ny":28,"refTime":"2024-10-01T21:00:00:Z","depth":0,"parameterNumber":3,"parameterNumberName":"V-component_of_WINDS"},"data":[0,0,0,0,0,0,0,0,0,0,0,0,0,0,0,0,0,0,0,0,0,0,0,0,0,0,0,0,0,0,0,0,0,0,0,0,0,0,0,0,0,0,0,0,0,0,0,0,0,0,0,0,0,0,0,0,0,0,-3.5269,-3.5269,0,-3.5337,-3.5338,-3.5339,-3.5288,-3.5286,-3.5284,-3.5282,-3.5349,-3.5353,-3.5357,0,0,0,0,0,0,0,0,0,0,0,0,0,-3.5091,-3.5094,-3.5269,-3.527,-3.527,-3.5337,-3.5338,-3.5339,-3.5289,-3.5286,-3.5283,-3.5281,-3.5348,-3.5352,-3.5357,0,0,0,0,0,0,0,0,0,0,0,0,0,-3.5164,-3.5095,-3.5268,-3.5253,-3.5253,-3.5337,-3.5338,-3.5339,-3.5289,-3.5286,-3.5282,-3.5279,-3.5346,-3.5352,-3.5358,-3.546,0,0,-3.5375,-3.5378,0,0,0,0,0,0,0,0,-3.516,-3.5171,-3.5255,-3.5255,-3.5254,-3.5301,-3.53,-3.538,-3.529,-3.5275,-3.5282,-3.5278,-3.5336,-3.5342,-3.5362,-3.5463,-3.5466,-3.5376,-3.5379,-3.5382,-3.5383,0,0,0,0,0,0,0,-3.5155,-3.5168,-3.5296,-3.5256,-3.5256,-3.5242,-3.5249,-3.5315,-3.5323,-3.5276,-3.5273,-3.5282,-3.5335,-3.5357,-3.5363,-3.5467,-3.5376,-3.5381,-3.5384,-3.5387,-3.5654,-3.5658,0,0,0,0,0,0,-3.5152,-3.5164,-3.5293,-3.5298,-3.5198,-3.5248,-3.5256,-3.5289,-3.5322,-3.5324,-3.5284,-3.5279,-3.5348,-3.5357,-3.5365,-3.5487,-3.5382,-3.5387,-3.539,-3.5651,-3.5655,-3.5659,0,0,0,0,0,0,-3.5148,-3.5164,-3.5291,-3.523,-3.5245,-3.5255,-3.5293,-3.5292,-3.5314,-3.5328,-3.5329,-3.5306,-3.5346,-3.5357,-3.5437,-3.5489,-3.539,-3.5395,-3.5646,-3.5652,-3.5657,-3.5731,0,0,0,0,0,0,-3.5144,-3.5163,-3.5203,-3.5231,-3.5249,-3.5362,-3.5296,-3.5296,-3.5325,-3.5318,-3.5349,-3.535,-3.5344,-3.5428,-3.5443,-3.5495,-3.54,-3.5642,-3.5649,-3.5655,-3.5724,-3.5739,-3.5751,0,0,0,0,0,-3.5137,-3.522,-3.5205,-3.5221,-3.5299,-3.5365,-3.5375,-3.5367,-3.5329,-3.5368,-3.5378,-3.5349,-3.5481,-3.5437,-3.5452,-3.5507,-3.5638,-3.5647,-3.5655,-3.5718,-3.5736,-3.5751,0,0,0,0,0,0,-3.5197,-3.5224,-3.5207,-3.5302,-3.5332,-3.5357,-3.5406,-3.5386,-3.5427,-3.5419,-3.5406,-3.5414,-3.5497,-3.551,-3.5461,-3.5608,-3.5553,-3.5565,-3.5596,-3.5613,-3.5626,-3.5621,-3.5404,0,0,0,0,0,-3.5221,-3.5274,-3.5294,-3.5376,-3.5392,-3.5397,-3.5426,-3.5417,-3.5447,-3.5459,-3.5474,-3.5503,-3.5551,-3.5583,-3.5627,-3.5726,-3.5731,-3.5771,-3.5784,-3.5795,-3.5805,-3.5858,-3.5876,-3.5686,-3.5686,-3.5686,0,0,-3.5272,-3.5293,-3.5327,-3.5389,-3.5411,-3.5465,-3.5408,-3.5467,-3.5507,-3.5468,-3.5544,-3.5556,-3.5588,-3.5677,-3.5717,-3.569,-3.5859,-3.5806,-3.5814,-3.5818,-3.5868,-3.5886,-3.5902,-3.5691,-3.569,-3.5689,0,0,-3.5392,-3.5413,-3.5484,-3.5507,-3.5542,-3.5544,-3.5561,-3.5589,-3.5596,-3.5672,-3.5644,-3.569,-3.5773,-3.5797,-3.582,-3.5948,-3.5924,-3.5963,-3.6033,-3.6084,-3.6099,-3.6112,-3.6158,-3.6175,-3.5973,-3.5973,-3.5974,0,-3.545,-3.5531,-3.5522,-3.5585,-3.5612,-3.558,-3.565,-3.5673,-3.572,-3.574,-3.5709,-3.5812,-3.5831,-3.5926,-3.5957,-3.5977,-3.5995,-3.596,-3.6098,-3.6111,-3.6123,-3.6167,-3.6184,-3.5978,-3.5977,-3.5977,-3.5977,0,-3.5601,-3.5658,-3.5711,-3.5758,-3.5792,-3.5858,-3.5858,-3.5892,-3.5881,-3.5886,-3.5964,-3.5986,-3.6034,-3.6056,-3.6045,-3.6149,-3.6131,-3.61,-3.6045,-3.6146,-3.6187,-3.6203,-3.5984,-3.5983,-3.5981,-3.598,0,0,-3.5761,-3.5802,-3.5822,-3.5843,-3.5878,-3.5922,-3.5986,-3.6034,-3.6064,-3.6097,-3.615,-3.6221,-3.6192,-3.6218,-3.6209,-3.6254,-3.6355,-3.6217,-3.6218,-3.6242,-3.647,-3.6494,-3.6513,-3.6339,-3.6342,-3.6344,-3.6468,0,-3.5882,-3.5996,-3.5989,-3.6095,-3.6147,-3.6117,-3.6173,-3.62,-3.6207,-3.6251,-3.6257,-3.6308,-3.6266,-3.6281,-3.6325,-3.6334,-3.64,-3.6324,-3.6387,-3.6389,-3.638,-3.6535,-3.656,-3.6675,-3.6483,-3.6486,-3.6488,0,-3.604,-3.6079,-3.6191,-3.6219,-3.624,-3.6291,-3.6334,-3.6377,-3.6407,-3.6409,-3.6438,-3.6422,-3.6485,-3.6429,-3.6516,-3.6465,-3.649,-3.6498,-3.6502,-3.6508,-3.6445,-3.6544,-3.6712,-3.6729,-3.6513,-3.6511,-3.6509,0,-3.6145,-3.6226,-3.6303,-3.6322,-3.6356,-3.6392,-3.6408,-3.6435,-3.6464,-3.6502,-3.6521,-3.6565,-3.6589,-3.6624,-3.6619,-3.6579,-3.6708,-3.6651,-3.671,-3.6711,-3.6739,-3.6737,-3.6913,-3.6755,-3.6755,-3.6755,-3.6754,0,-3.6281,-3.6351,-3.6351,-3.6399,-3.6475,-3.6466,-3.6542,-3.6553,-3.6577,-3.6626,-3.6602,-3.6647,-3.6639,-3.6684,-3.6681,-3.6753,-3.6764,-3.6767,-3.6765,-3.6769,-3.6769,-3.6786,-3.6778,-3.6759,-3.6758,-3.6757,-3.6757,0,-3.6412,-3.6415,-3.6497,-3.6523,-3.6531,-3.6586,-3.6608,-3.6652,-3.6657,-3.6718,-3.6732,-3.6739,-3.6791,-3.679,-3.6849,-3.6847,-3.6936,-3.6925,-3.6927,-3.6924,-3.6984,-3.6978,-3.7176,-3.7202,-3.7027,-3.7029,-3.703,0,-3.6499,-3.6552,-3.6584,-3.6615,-3.6633,-3.6684,-3.6714,-3.6707,-3.6739,-3.6777,-3.6817,-3.6867,-3.6907,-3.6991,-3.7001,-3.7045,-3.7035,-3.7102,-3.7042,-3.7044,-3.7036,-3.7033,-3.7038,-3.7113,-3.7115,-3.7117,-3.7118,0,-3.6653,-3.6652,-3.6697,-3.6743,-3.678,-3.6815,-3.6848,-3.6875,-3.6871,-3.6908,-3.6962,-3.6993,-3.7053,-3.7103,-3.7146,-3.7161,-3.7139,-3.7137,-3.7153,-3.7158,-3.7157,-3.7158,-3.6959,-3.7133,-3.7131,-3.713,-3.7129,-3.7129,-3.6765,-3.681,-3.684,-3.6891,-3.6915,-3.6946,-3.6989,-3.6999,-3.7044,-3.7094,-3.7086,-3.7146,-3.7174,-3.723,-3.7248,-3.7294,-3.7271,-3.7294,-3.73,-3.7306,-3.7312,-3.7149,-3.7302,-3.7301,-3.7301,-3.7301,-3.73,0,-3.6918,-3.6935,-3.6982,-3.7029,-3.7069,-3.7046,-3.7081,-3.7115,-3.7168,-3.7197,-3.7236,-3.7298,-3.7346,-3.7359,-3.7405,-3.744,-3.7431,-3.7452,-3.7449,-3.7453,-3.7331,-3.7312,-3.7458,-3.7458,-3.7458,-3.7458,-3.7458,-3.7458,-3.7002,-3.7078,-3.7081,-3.7168,-3.7184,-3.7244,-3.7265,-3.7293,-3.7316,-3.7386,-3.7426,-3.7435,-3.7457,-3.7504,-3.7547,-3.755,-3.7568,-3.7593,-3.7592,-3.7477,-3.7462,-3.7446,-3.7429,-3.7597,-3.7597,-3.771,-3.7711,-3.7712]}]]